Simultaneous Nadir Overpasses (SNOs) Predictions

Prediction of SNOs between METOP-A and NOAA-19 Satellite Orbit:

Table of predicted SNOs for the next 14.0 days since TLE Epoch: 3/7/2014
Index Date (METOP-A) Time (METOP-A) Lat,Lon (METOP-A) SZA (METOP-A ) Date (NOAA-19) Time (NOAA-19) Lat,Lon (NOAA-19) SZA (NOAA-19 ) Distance(km) Time Diff (sec)
1 03/08/2014 04:57:36 74.43, 100.80 79.40 03/08/2014 04:56:27 74.40, 98.59 79.48 66.08 69
2 03/08/2014 05:48:27 -73.98, -93.00 101.02 03/08/2014 05:47:22 -73.98, -93.06 101.01 1.99 65
3 03/08/2014 06:39:07 73.97, 74.29 78.96 03/08/2014 06:38:22 73.97, 74.20 78.98 2.83 45
4 03/08/2014 07:29:50 -73.91,-118.52 101.11 03/08/2014 07:29:25 -73.93,-118.47 101.09 2.86 25
5 03/08/2014 08:20:29 73.94, 48.89 78.91 03/08/2014 08:20:25 73.93, 48.79 78.90 3.47 4
6 03/08/2014 09:11:12 -73.89,-143.92 101.16 03/08/2014 09:11:28 -73.89,-143.87 101.16 1.25 16
7 03/08/2014 10:01:52 73.87, 23.38 78.82 03/08/2014 10:02:28 73.89, 23.38 78.82 1.75 36
8 03/08/2014 10:52:34 -73.86,-169.31 101.21 03/08/2014 10:53:31 -73.85,-169.28 101.24 2.34 57
9 03/08/2014 11:43:17 73.70, -2.37 78.63 03/08/2014 11:44:29 73.74, -1.78 78.64 19.15 72
10 03/18/2014 09:03:53 -74.38,-140.93 104.67 03/18/2014 09:02:43 -74.43,-142.96 104.53 60.95 70
11 03/18/2014 09:54:40 74.01, 25.47 74.98 03/18/2014 09:53:32 74.00, 25.43 74.99 1.28 68
12 03/18/2014 10:45:23 -73.97,-167.31 105.07 03/18/2014 10:44:37 -73.96,-167.23 105.08 2.54 46
13 03/18/2014 11:36:02 73.98, 0.07 74.93 03/18/2014 11:35:35 73.96, 0.03 74.91 3.07 27
14 03/18/2014 12:26:45 -73.94, 167.29 105.12 03/18/2014 12:26:41 -73.96, 167.24 105.10 2.88 4
15 03/18/2014 13:17:25 73.91, -25.45 74.84 03/18/2014 13:17:38 73.92, -25.38 74.84 2.18 13
16 03/18/2014 14:08:07 -73.92, 141.90 105.17 03/18/2014 14:08:44 -73.92, 141.83 105.17 2.07 37
17 03/18/2014 14:58:47 73.89, -50.85 74.79 03/18/2014 14:59:41 73.87, -50.79 74.77 2.12 54
18 03/18/2014 15:49:32 -73.75, 116.15 105.36 03/18/2014 15:50:45 -73.78, 116.66 105.35 16.52 73




NCC Satellite Simultaneous Nadir Overpasses (SN
